Weather in Gothenburg

Sweden     57°42′37″N   11°59′11″E
temp.,
°C
wind,
m/s
gust,
m/s
humid.,
%
clouds,
%
prec.,
mm/h
press.,
hPa
HPBL,
m
22 october, fri
fri2223:00+7wnw8125267 0.0 9871059
02:00+7wnw9145819 0.3 9891228
05:00+7w8136215 0.3 9901175
08:00+7wnw611649 0.3 989782
11:00+8wnw69565 0.1 9911445
14:00+9wnw610494 0.2 9921500
17:00+8wnw510503 0.0 994748
20:00+7wnw4105938 0.0 997288
23 october, sat
sat2323:00+8nw411655 0.0 1000395
02:00+6n3116682 0.0 1005396
05:00+4n256719 0.0 1010125
08:00+3n12704 0.0 101336
11:00+7n28550 0.0 1017365
14:00+10nne244115 0.0 1020914
17:00+8wsw2257100 0.0 102135
20:00+5s23625 0.0 102359
24 october, sun
sun2423:00+5ssw247820 0.0 102499
02:00+8sw387294 0.1 1024359
05:00+7sw4979100 0.0 1023354
08:00+9ssw61180100 0.0 1023700
11:00+10ssw61286100 0.1 1023812
14:00+10ssw61284100 0.3 1023796
17:00+10ssw61184100 0.0 1021706
20:00+9ssw61185100 0.0 1021618
25 october, mon
mon2523:00+9ssw61183100 0.0 1020681
02:00+9ssw51181100 0.0 1019637
05:00+8ssw5108285 0.0 1017600
08:00+8s41083100 0.0 1016581
11:00+10ssw597673 0.0 1015720
14:00+10ssw5983100 0.0 1015569
17:00+10s51091100 0.1 1014572
20:00+11ssw41090100 0.5 1013737
26 october, tue
tue2623:00+11sw5119194 0.6 1013600
02:00+10sw51095100 1.9 1012688
05:00+9wsw5119179 0.9 1012622
08:00+9wsw5108748 1.1 1012643
11:00+10wsw598537 0.1 1013840
14:00+11sw588394 0.1 1013811
17:00+10ssw488881 0.0 1013442
20:00+10ssw4991100 0.1 1012383